TimeEDT,TemperatureF,Dew PointF,Humidity,Sea Level PressureIn,VisibilityMPH,Wind Direction,Wind SpeedMPH,Gust SpeedMPH,PrecipitationIn,Events,Conditions,WindDirDegrees,DateUTC
12:55 AM,57.9,51.1,78,30.17,10.0,Calm,Calm,-,N/A,,Clear,0,2012-10-24 04:55:00
1:55 AM,54.1,53.6,98,30.16,10.0,Calm,Calm,-,N/A,,Clear,0,2012-10-24 05:55:00
2:55 AM,52.7,52.5,99,30.16,10.0,Calm,Calm,-,N/A,,Clear,0,2012-10-24 06:55:00
3:55 AM,52.7,52.2,98,30.15,10.0,Calm,Calm,-,N/A,,Clear,0,2012-10-24 07:55:00
4:55 AM,52.3,52.0,99,30.16,10.0,Calm,Calm,-,N/A,,Clear,0,2012-10-24 08:55:00
5:55 AM,51.1,50.9,99,30.17,10.0,Calm,Calm,-,N/A,,Clear,0,2012-10-24 09:55:00
6:55 AM,50.4,50.2,99,30.18,10.0,Calm,Calm,-,N/A,,Clear,0,2012-10-24 10:55:00
7:55 AM,50.2,49.8,99,30.19,6.0,Calm,Calm,-,N/A,,Clear,0,2012-10-24 11:55:00
8:02 AM,50.0,50.0,100,30.20,0.8,Calm,Calm,-,N/A,,Clear,0,2012-10-24 12:02:00
8:22 AM,51.8,51.8,100,30.20,3.0,Calm,Calm,-,N/A,,Clear,0,2012-10-24 12:22:00
8:55 AM,54.9,54.5,99,30.20,10.0,Calm,Calm,-,N/A,,Clear,0,2012-10-24 12:55:00
9:55 AM,64.2,58.3,81,30.21,10.0,Calm,Calm,-,N/A,,Clear,0,2012-10-24 13:55:00
10:55 AM,72.1,58.8,63,30.19,10.0,NW,3.5,-,N/A,,Clear,320,2012-10-24 14:55:00
11:55 AM,75.4,57.2,53,30.18,10.0,WNW,3.5,-,N/A,,Clear,300,2012-10-24 15:55:00
12:55 PM,77.7,55.9,47,30.15,10.0,Calm,Calm,-,N/A,,Clear,0,2012-10-24 16:55:00
1:55 PM,79.3,54.7,42,30.12,10.0,SSW,3.5,-,N/A,,Clear,200,2012-10-24 17:55:00
2:55 PM,80.1,53.8,40,30.10,9.0,Calm,Calm,-,N/A,,Clear,0,2012-10-24 18:55:00
3:55 PM,80.4,52.0,37,30.10,10.0,Calm,Calm,-,N/A,,Clear,0,2012-10-24 19:55:00
4:55 PM,80.2,52.2,38,30.09,10.0,South,5.8,-,N/A,,Clear,180,2012-10-24 20:55:00
5:55 PM,78.6,52.0,39,30.10,10.0,Calm,Calm,-,N/A,,Clear,0,2012-10-24 21:55:00
6:55 PM,69.6,58.8,68,30.10,10.0,Calm,Calm,-,N/A,,Clear,0,2012-10-24 22:55:00
7:55 PM,63.9,58.5,83,30.12,10.0,Calm,Calm,-,N/A,,Clear,0,2012-10-24 23:55:00
8:55 PM,61.7,58.1,88,30.13,10.0,Calm,Calm,-,N/A,,Clear,0,2012-10-25 00:55:00
9:55 PM,59.4,57.0,92,30.14,10.0,Calm,Calm,-,N/A,,Clear,0,2012-10-25 01:55:00
10:55 PM,57.9,56.7,96,30.14,10.0,Calm,Calm,-,N/A,,Clear,0,2012-10-25 02:55:00
11:55 PM,56.8,55.8,96,30.14,10.0,Calm,Calm,-,N/A,,Clear,0,2012-10-25 03:55:00